Weather History for CWRU - October, 2013

Change the Weather History Date:

Sunday, October 27, 2013

  Actual Average Record
Temperature  
Mean Temperature 54 °F -  
Max Temperature 58 °F - - ()
Min Temperature 49 °F - - ()
Degree Days  
Heating Degree Days 12    
Growing Degree Days 4 (Base 50)    
Moisture  
Dew Point 42 °F    
Average Humidity 67    
Maximum Humidity 97    
Minimum Humidity 34    
Precipitation  
Precipitation 0.00 in - - ()
Sea Level Pressure  
Sea Level Pressure 30.15 in    
Wind  
Wind Speed 26 mph ()    
Max Wind Speed 40 mph    
Max Gust Speed 45 mph    
T = Trace of Precipitation, MM = Missing Value Source: Averaged Metar Reports

Daily Weather History Graph

Daily Weather History Graph

Search for Another Location

Airport or City:

Trip Planner

Search our weather history database for the weather conditions in past years. The results will help you decide how hot, cold, wet, or windy it might be!

Date:

Astronomy

Oct. 27, 2013 Rise Set
Actual Time 8:14 AM PDT 6:16 PM PDT
Civil Twilight 7:40 AM PDT 6:49 PM PDT
Nautical Twilight 7:02 AM PDT 7:27 PM PDT
Astronomical Twilight 6:24 AM PDT 8:05 PM PDT
Moon 12:38 AM PDT (10/27) 3:04 PM PDT (10/27)
Length of Visible Light 11h 09m
Length of Day
10h 02m
Last Quarter, 42% of the Moon is Illuminated
Oct 27
Last Quarter
Nov 3
New
Nov 9
First Quarter
Nov 17
Full
Nov 25
Last Quarter

Hourly Weather History & Observations

Time (PDT) Temp. Dew Point Humidity Pressure Visibility Wind Dir Wind Speed Gust Speed Precip Events Conditions
12:00 AM 50.4 °F 49.5 °F 97% 30.24 in - North 15.0 mph - N/A   Unknown
1:00 AM 50.7 °F 49.8 °F 97% 30.22 in - NNW 21.9 mph - N/A   Unknown
2:00 AM 51.6 °F 50.5 °F 96% 30.19 in - NNW 33.4 mph 41.4 mph N/A   Unknown
3:00 AM 51.6 °F 46.8 °F 83% 30.19 in - NNW 35.7 mph - N/A   Unknown
4:00 AM 50.4 °F 44.1 °F 79% 30.16 in - NNW 39.1 mph 44.9 mph N/A   Unknown
5:00 AM 50 °F 44 °F 74% 30.17 in - North 34.5 mph - -  
5:00 AM 49.8 °F 44.2 °F 81% 30.17 in - North 34.5 mph 42.6 mph N/A   Unknown
6:00 AM 50.2 °F 45.0 °F 82% 30.18 in - North 28.8 mph 34.5 mph N/A   Unknown
7:00 AM 50.4 °F 45.0 °F 82% 30.17 in - North 27.6 mph 36.8 mph N/A   Unknown
8:00 AM 50.4 °F 44.1 °F 79% 30.16 in - North 31.1 mph - N/A   Unknown
9:00 AM 50.7 °F 44.6 °F 80% 30.18 in - North 28.8 mph - N/A   Unknown
10:00 AM 51.8 °F 43.0 °F 72% 30.19 in - North 23.0 mph - N/A   Unknown
11:00 AM 52 °F 43 °F 64% 30.19 in - North 20.7 mph - -  
11:00 AM 52.3 °F 43.3 °F 71% 30.19 in - North 20.7 mph - N/A   Unknown
12:00 PM 53.6 °F 41.9 °F 65% 30.18 in - NNW 23.0 mph - N/A   Unknown
1:00 PM 55.4 °F 39.6 °F 55% 30.17 in - North 26.5 mph - N/A   Unknown
2:00 PM 55.6 °F 42.4 °F 61% 30.14 in - North 27.6 mph - N/A   Unknown
3:00 PM 57.9 °F 38.1 °F 48% 30.13 in - North 27.6 mph - N/A   Unknown
4:00 PM 57.9 °F 39.6 °F 50% 30.12 in - North 32.2 mph - N/A   Unknown
5:00 PM 57 °F 41 °F 44% 30.12 in - North 33.4 mph - -  
5:00 PM 57.4 °F 41.0 °F 54% 30.12 in - North 33.4 mph - N/A   Unknown
6:00 PM 56.1 °F 41.7 °F 58% 30.11 in - North 36.8 mph - N/A   Unknown
7:00 PM 55.9 °F 40.6 °F 56% 30.10 in - North 38.0 mph - N/A   Unknown
8:00 PM 55.9 °F 38.7 °F 52% 30.09 in - NNE 36.8 mph - N/A   Unknown
9:00 PM 55.4 °F 39.9 °F 56% 30.07 in - NNE 36.8 mph - N/A   Unknown
10:00 PM 55.8 °F 36.7 °F 49% 30.04 in - NNE 40.3 mph - N/A   Unknown
11:00 PM 56 °F 35 °F 34% 30.05 in - NNE 34.5 mph - -  
11:00 PM 56.5 °F 35.4 °F 45% 30.05 in - NNE 34.5 mph - N/A   Unknown